Lincoln County, Oregon, United States
Lat: 44.65N, Lon: 123.85W
Wx Zone: ORZ004
Local Info
Past Weather Observations for Thursday, August 28, 2014

NOTE: This archive is for the closest National Weather Service station to Lincoln County. Information may differ from the station used for current weather conditions.

Click here for Long-term Archive

Time Weather Temperature Dewpoint Humidity Pressure Winds Precip Visibility
23:55
Overcast
Fog And Mist
55°F / 13°C 55°F / 13°C 100% 30.06 in
(1018 mb)
Calm - 3/4SM
23:35
Overcast
Fog And Mist
55°F / 13°C 54°F / 12°C 94% 30.06 in
(1018 mb)
Calm - 1 1/4SM
23:15
Overcast
Fog And Mist
55°F / 13°C 55°F / 13°C 100% 30.06 in
(1018 mb)
Calm - 3/4SM
22:55
Overcast
Fog And Mist
55°F / 13°C 55°F / 13°C 100% 30.09 in
(1019 mb)
Calm - 4SM
22:35
Overcast
Fog And Mist
57°F / 14°C 55°F / 13°C 94% 30.06 in
(1018 mb)
Calm - 1SM
22:15
Overcast
Fog And Mist
59°F / 15°C 57°F / 14°C 94% 30.09 in
(1019 mb)
N 3.5 mph
(N 6 kph)
- 1 1/2SM
21:55
Overcast
Fog And Mist
59°F / 15°C 59°F / 15°C 100% 30.09 in
(1019 mb)
N 3.5 mph
(N 6 kph)
- 2 1/2SM
21:35
Overcast
Fog And Mist
59°F / 15°C 59°F / 15°C 100% 30.09 in
(1019 mb)
N 5.8 mph
(N 9 kph)
- 1 3/4SM
21:15
Overcast
Fog And Mist
59°F / 15°C 57°F / 14°C 94% 30.09 in
(1019 mb)
NNW 5.8 mph
(NNW 9 kph)
- 2SM
20:55
Overcast
Fog And Mist
59°F / 15°C 57°F / 14°C 94% 30.09 in
(1019 mb)
Calm - 5SM
20:35
Overcast
Fog And Mist
59°F / 15°C 57°F / 14°C 94% 30.09 in
(1019 mb)
N 3.5 mph
(N 6 kph)
- 5SM
20:15
Overcast
Fog And Mist
59°F / 15°C 57°F / 14°C 94% 30.09 in
(1019 mb)
N 4.6 mph
(N 7 kph)
- 3/4SM
19:55
Overcast
Fog
59°F / 15°C 57°F / 14°C 94% 30.09 in
(1019 mb)
NNW 9.2 mph
(NNW 15 kph)
- 1/2SM
19:35
Overcast
Fog And Mist
59°F / 15°C 57°F / 14°C 94% 30.09 in
(1019 mb)
N 8.1 mph
(N 13 kph)
- 3/4SM
19:15
Overcast
Fog
59°F / 15°C 59°F / 15°C 100% 30.09 in
(1019 mb)
N 8.1 mph
(N 13 kph)
- 1/2SM
18:55
Overcast
Fog And Mist
59°F / 15°C 59°F / 15°C 100% 30.09 in
(1019 mb)
N 5.8 mph
(N 9 kph)
- 2 1/2SM
18:35
Overcast
Fog And Mist
59°F / 15°C 59°F / 15°C 100% 30.09 in
(1019 mb)
N 9.2 mph
(N 15 kph)
- 1SM
18:15
Overcast
Fog And Mist
61°F / 16°C 59°F / 15°C 94% 30.09 in
(1019 mb)
NNW 8.1 mph
(NNW 13 kph)
- 3SM
17:55
Overcast
Fog And Mist
59°F / 15°C 59°F / 15°C 100% 30.09 in
(1019 mb)
N 5.8 mph
(N 9 kph)
- 3/4SM
17:35
Overcast
Fog
61°F / 16°C 59°F / 15°C 94% 30.09 in
(1019 mb)
N 5.8 mph
(N 9 kph)
- 1/2SM
17:15
Overcast
Fog
61°F / 16°C 59°F / 15°C 94% 30.12 in
(1020 mb)
N 6.9 mph
(N 11 kph)
- 1/4SM
16:55
Overcast
Fog
61°F / 16°C 59°F / 15°C 94% 30.12 in
(1020 mb)
N 8.1 mph
(N 13 kph)
- 1/4SM
16:35
Overcast
Fog And Mist
63°F / 17°C 59°F / 15°C 88% 30.12 in
(1020 mb)
NNW 8.1 mph
(NNW 13 kph)
- 2SM
16:15
Overcast
63°F / 17°C 59°F / 15°C 88% 30.12 in
(1020 mb)
NNW 11.5 mph
(NNW 19 kph)
- 10SM
15:55
Mostly Cloudy
63°F / 17°C 59°F / 15°C 88% 30.12 in
(1020 mb)
NNW 9.2 mph
(NNW 15 kph)
- 10SM
15:35
Clear
63°F / 17°C 59°F / 15°C 88% 30.12 in
(1020 mb)
NNW 10.4 mph
(NNW 17 kph)
- 10SM
15:15
Partly Cloudy
64°F / 18°C 59°F / 15°C 83% 30.12 in
(1020 mb)
NNW 8.1 mph
(NNW 13 kph)
- 10SM
14:55
Partly Cloudy
63°F / 17°C 59°F / 15°C 88% 30.12 in
(1020 mb)
NW 9.2 mph
(NW 15 kph)
- 7SM
14:35
Clear
64°F / 18°C 59°F / 15°C 83% 30.15 in
(1021 mb)
NNW 10.4 mph
(NNW 17 kph)
- 10SM
14:15
Clear
63°F / 17°C 59°F / 15°C 88% 30.15 in
(1021 mb)
NNW 11.5 mph
(NNW 19 kph)
- 7SM
13:55
Clear
63°F / 17°C 59°F / 15°C 88% 30.15 in
(1021 mb)
NNW 9.2 mph
(NNW 15 kph)
- 10SM
13:35
Clear
64°F / 18°C 57°F / 14°C 78% 30.15 in
(1021 mb)
NNW 10.4 mph
(NNW 17 kph)
- 10SM
13:15
Clear
64°F / 18°C 57°F / 14°C 78% 30.15 in
(1021 mb)
NNW 10.4 mph
(NNW 17 kph)
- 10SM
12:55
Clear
63°F / 17°C 57°F / 14°C 83% 30.15 in
(1021 mb)
NW 10.4 mph
(NW 17 kph)
- 10SM
12:35
Clear
63°F / 17°C 55°F / 13°C 77% 30.15 in
(1021 mb)
NNW 9.2 mph
(NNW 15 kph)
- 10SM
12:15
Clear
63°F / 17°C 55°F / 13°C 77% 30.15 in
(1021 mb)
NNW 10.4 mph
(NNW 17 kph)
- 10SM
11:55
Clear
64°F / 18°C 55°F / 13°C 73% 30.15 in
(1021 mb)
NNW 10.4 mph
(NNW 17 kph)
- 7SM
11:35
Clear
64°F / 18°C 55°F / 13°C 73% 30.15 in
(1021 mb)
N 10.4 mph
(N 17 kph)
- 10SM
11:15
Clear
61°F / 16°C 55°F / 13°C 83% 30.15 in
(1021 mb)
NNW 6.9 mph
(NNW 11 kph)
- 7SM
10:55
Clear
63°F / 17°C 55°F / 13°C 77% 30.15 in
(1021 mb)
NW 5.8 mph
(NW 9 kph)
- 10SM
10:35
Clear
63°F / 17°C 55°F / 13°C 77% 30.15 in
(1021 mb)
NNW 9.2 mph
(NNW 15 kph)
- 7SM
10:15
Clear
64°F / 18°C 57°F / 14°C 78% 30.15 in
(1021 mb)
NNW 6.9 mph
(NNW 11 kph)
- 7SM
09:55
Clear
61°F / 16°C 55°F / 13°C 83% 30.15 in
(1021 mb)
NW 8.1 mph
(NW 13 kph)
- 7SM
09:35
Clear
61°F / 16°C 61°F / 16°C 100% 30.15 in
(1021 mb)
WNW 3.5 mph
(WNW 6 kph)
- 7SM
09:15
Clear
59°F / 15°C 59°F / 15°C 100% 30.15 in
(1021 mb)
Calm - 10SM
08:55
Clear
57°F / 14°C 57°F / 14°C 100% 30.15 in
(1021 mb)
Calm - 10SM
08:35
Partly Cloudy
57°F / 14°C 57°F / 14°C 100% 30.15 in
(1021 mb)
Calm - 7SM
08:15
Mostly Cloudy
57°F / 14°C 57°F / 14°C 100% 30.15 in
(1021 mb)
Calm - 10SM
07:55
Overcast
Fog And Mist
55°F / 13°C 55°F / 13°C 100% 30.15 in
(1021 mb)
Calm - 5SM
07:35
Overcast
Fog And Mist
55°F / 13°C 55°F / 13°C 100% 30.15 in
(1021 mb)
Calm - 1 1/4SM
07:15
Overcast
Fog
55°F / 13°C 55°F / 13°C 100% 30.15 in
(1021 mb)
Calm - 1/4SM
06:55
Overcast
Fog
54°F / 12°C 54°F / 12°C 100% 30.15 in
(1021 mb)
Calm - M1/4SM
06:35
Overcast
Fog
52°F / 11°C 52°F / 11°C 100% 30.15 in
(1021 mb)
Calm - M1/4SM
06:15
Overcast
Fog
52°F / 11°C 52°F / 11°C 100% 30.15 in
(1021 mb)
Calm - 1/4SM
05:55
Overcast
Fog
50°F / 10°C 50°F / 10°C 100% 30.15 in
(1021 mb)
Calm - 1/4SM
05:35
Overcast
Fog
50°F / 10°C 50°F / 10°C 100% 30.15 in
(1021 mb)
Calm - 1/4SM
05:15
Overcast
Fog
50°F / 10°C 50°F / 10°C 100% 30.15 in
(1021 mb)
Calm - 1/2SM
04:55
Overcast
Fog
52°F / 11°C 52°F / 11°C 100% 30.15 in
(1021 mb)
Calm - 1/4SM
04:35
Overcast
Fog
52°F / 11°C 52°F / 11°C 100% 30.15 in
(1021 mb)
Calm - 1/2SM
04:15
Overcast
Fog
52°F / 11°C 52°F / 11°C 100% 30.15 in
(1021 mb)
Calm - 1/4SM
03:55
Overcast
Fog
52°F / 11°C 52°F / 11°C 100% 30.15 in
(1021 mb)
Calm - 1/2SM
03:35
Overcast
Fog And Mist
52°F / 11°C 52°F / 11°C 100% 30.15 in
(1021 mb)
Calm - 3/4SM
03:15
Overcast
Fog And Mist
52°F / 11°C 52°F / 11°C 100% 30.15 in
(1021 mb)
Calm - 1SM
02:55
Overcast
Fog And Mist
52°F / 11°C 52°F / 11°C 100% 30.15 in
(1021 mb)
Calm - 1SM
02:35
Overcast
Fog And Mist
52°F / 11°C 52°F / 11°C 100% 30.15 in
(1021 mb)
Calm - 3/4SM
02:15
Overcast
Fog
52°F / 11°C 52°F / 11°C 100% 30.15 in
(1021 mb)
Calm - 1/2SM
01:55
Overcast
Fog
50°F / 10°C 50°F / 10°C 100% 30.12 in
(1020 mb)
Calm - 1/2SM
01:35
Overcast
Fog And Mist
50°F / 10°C 50°F / 10°C 100% 30.12 in
(1020 mb)
Calm - 3/4SM
01:15
Overcast
Fog And Mist
50°F / 10°C 50°F / 10°C 100% 30.12 in
(1020 mb)
Calm - 3SM
00:55
Fog And Mist
50°F / 10°C 50°F / 10°C 100% 30.12 in
(1020 mb)
Calm - 3SM
00:35
Clear
Fog And Mist
50°F / 10°C 50°F / 10°C 100% 30.12 in
(1020 mb)
Calm - 5SM
00:15
Clear
Fog And Mist
52°F / 11°C 50°F / 10°C 94% 30.12 in
(1020 mb)
Calm - 5SM
Time Weather Temperature Dewpoint Humidity Pressure Winds Precip Visibility


Weather for websites

WeatherForYou.com, LLC is not responsible for any damages or problems caused by this service. Current weather conditions are obtained from the closest station including government and personal stations which may have varying degrees of accuracy. Weather forecasts are derived from the NOAA NDFD. Like all things, this site belongs to Jesus Christ... He just trusts me to maintain it. If you have any questions or comments email webmaster@weatherforyou.com

Copyright © 2014, WeatherForYou.com LLC. All rights reserved.